period_start,C,m1,H,J0,J1,J2,J3,J4,J5,JA,JB,JC,JD,JJ,JK,JN,#
2018-06-16 00:03:22,-0.00,2.24,0.00,24.17,28.47,31.52,13.96,48.68,1020.52,2019.99,2519.90,2424.99,2817.99,600.04,596.08,6.60,0000 0000 0000 0000 000000
2018-06-16 00:08:24,-0.00,2.24,0.00,24.15,28.44,31.48,13.94,48.64,1020.52,2020.02,2519.97,2425.03,2817.99,599.91,595.95,6.65,0000 0000 0000 0000 000000
2018-06-16 00:13:25,0.03,2.24,0.00,24.13,28.41,31.46,13.97,48.63,1020.52,2020.22,2519.98,2425.13,2818.01,600.01,596.14,6.70,0000 0000 0000 0000 000000
2018-06-16 00:18:26,0.02,2.24,0.00,24.10,28.39,31.44,13.99,48.68,1020.54,2020.62,2519.98,2425.24,2818.02,599.89,596.09,6.75,0000 0000 0000 0000 000000
2018-06-16 00:23:27,0.01,2.24,0.00,24.08,28.36,31.40,13.95,48.72,1020.61,2020.93,2519.99,2425.74,2818.11,599.95,596.19,6.80,0000 0000 0000 0000 000000
2018-06-16 00:28:28,-0.00,2.24,0.00,24.05,28.33,31.40,14.05,48.76,1020.78,2020.98,2519.99,2425.91,2818.36,600.10,596.48,6.85,0000 0000 0000 0000 000000
2018-06-16 00:33:30,-0.01,2.24,0.00,24.04,28.30,31.36,13.96,48.75,1020.92,2020.99,2519.99,2425.95,2818.55,599.92,596.40,6.91,0000 0000 0000 0000 000000
2018-06-16 00:38:31,-0.00,2.24,0.00,24.01,28.28,31.31,14.02,48.70,1020.90,2020.99,2519.99,2425.99,2818.95,599.93,596.42,6.96,0000 0000 0000 0000 000000
2018-06-16 00:43:32,0.00,2.24,0.00,23.98,28.25,31.29,14.06,48.75,1020.94,2021.01,2519.99,2425.99,2818.98,600.16,596.89,7.01,0000 0000 0000 0000 000000
2018-06-16 00:48:33,0.01,2.24,0.00,23.96,28.22,31.27,14.02,48.77,1020.98,2021.12,2520.00,2425.99,2818.99,600.08,596.70,7.06,0000 0000 0000 0000 000000
2018-06-16 00:53:34,0.05,2.24,0.00,23.93,28.20,31.26,14.09,48.73,1020.93,2021.67,2520.04,2426.03,2819.01,600.18,596.85,7.11,0000 0000 0000 0000 000000
2018-06-16 00:58:35,0.02,2.25,0.00,23.92,28.17,31.21,13.87,48.65,1020.97,2021.93,2520.05,2426.08,2819.04,599.62,596.28,7.16,0000 0000 0000 0000 000000
2018-06-16 01:03:36,-0.00,2.25,0.00,23.90,28.15,31.19,14.00,48.67,1020.98,2021.98,2520.09,2426.27,2819.13,600.19,596.96,7.21,0000 0000 0000 0000 000000
2018-06-16 01:08:37,-0.03,2.24,0.00,23.88,28.12,31.19,14.02,48.65,1020.97,2021.98,2520.33,2426.64,2819.54,600.08,596.85,7.26,0000 0000 0000 0000 000000
2018-06-16 01:13:39,-0.02,2.24,0.00,23.87,28.10,31.15,14.02,48.76,1021.00,2021.99,2520.76,2426.95,2819.96,600.01,596.84,7.31,0000 0000 0000 0000 000000
2018-06-16 01:18:40,-0.00,2.24,0.00,23.84,28.07,31.14,13.98,48.83,1020.99,2021.99,2520.93,2426.98,2819.99,599.87,596.74,7.36,0000 0000 0000 0000 000000
2018-06-16 01:23:41,0.00,2.24,0.00,23.82,28.05,31.12,14.00,48.77,1021.00,2022.01,2520.97,2426.99,2819.99,599.87,596.82,7.41,0000 0000 0000 0000 000000
2018-06-16 01:28:42,0.00,2.24,0.00,23.82,28.02,31.08,14.01,48.73,1021.01,2022.05,2520.97,2426.99,2819.99,599.82,596.80,7.46,0000 0000 0000 0000 000000
2018-06-16 01:33:43,0.00,2.24,0.00,23.79,28.00,31.06,14.02,48.67,1021.01,2022.12,2520.97,2426.99,2819.99,600.30,597.37,7.51,0000 0000 0000 0000 000000
2018-06-16 01:38:44,0.05,2.24,0.00,23.77,27.97,31.07,13.99,48.73,1021.01,2022.51,2520.99,2426.99,2820.01,599.94,597.09,7.56,0000 0000 0000 0000 000000
2018-06-16 01:43:46,0.02,2.25,0.00,23.75,27.95,31.04,14.02,48.80,1021.01,2022.86,2520.99,2427.03,2820.06,600.00,597.15,7.61,0000 0000 0000 0000 000000
2018-06-16 01:48:47,-0.01,2.25,0.00,23.75,27.93,31.03,14.09,48.80,1021.01,2022.96,2520.99,2427.25,2820.58,600.11,597.15,7.66,0000 0000 0000 0000 000000
2018-06-16 01:53:48,-0.00,2.25,0.00,23.73,27.91,31.01,14.07,48.77,1021.01,2022.99,2521.00,2427.53,2820.80,600.00,597.17,7.71,0000 0000 0000 0000 000000
2018-06-16 01:58:49,0.00,2.25,0.00,23.71,27.89,30.97,14.00,48.71,1021.01,2022.99,2521.00,2427.54,2820.87,600.12,597.28,7.76,0000 0000 0000 0000 000000
2018-06-16 02:03:50,-0.01,2.25,0.00,23.70,27.87,30.97,14.11,48.77,1021.01,2023.00,2521.00,2427.81,2820.98,600.01,597.22,7.81,0000 0000 0000 0000 000000
2018-06-16 02:08:51,-0.00,2.24,0.00,23.68,27.85,30.95,14.05,48.82,1021.01,2023.01,2521.03,2427.96,2820.99,600.15,597.53,7.86,0000 0000 0000 0000 000000
2018-06-16 02:13:53,-0.00,2.24,0.00,23.67,27.82,30.93,14.00,48.86,1021.01,2023.04,2521.22,2427.98,2820.98,599.89,597.14,7.91,0000 0000 0000 0000 000000
2018-06-16 02:18:54,-0.00,2.24,0.00,23.66,27.80,30.91,13.96,48.77,1021.01,2023.07,2521.38,2427.99,2820.99,599.86,597.07,7.96,0000 0000 0000 0000 000000
2018-06-16 02:23:55,0.02,2.25,0.00,23.65,27.79,30.88,14.03,48.82,1021.01,2023.28,2521.52,2427.99,2820.99,599.99,597.34,8.01,0000 0000 0000 0000 000000
2018-06-16 02:28:56,0.06,2.25,0.00,23.63,27.77,30.88,14.10,48.78,1021.02,2023.77,2521.38,2427.99,2821.01,600.11,597.47,8.06,0000 0000 0000 0000 000000
2018-06-16 02:33:58,0.01,2.25,0.00,23.62,27.75,30.85,14.01,48.70,1021.01,2023.94,2521.45,2427.99,2821.02,599.60,597.07,8.11,0000 0000 0000 0000 000000
2018-06-16 02:38:59,-0.01,2.25,0.00,23.61,27.73,30.81,13.99,48.80,1021.03,2023.97,2521.82,2427.99,2821.04,599.69,597.09,8.16,0000 0000 0000 0000 000000
2018-06-16 02:44:00,-0.01,2.25,0.00,23.60,27.72,30.81,14.04,48.79,1021.05,2023.99,2521.89,2428.00,2821.26,600.11,597.48,8.21,0000 0000 0000 0000 000000
2018-06-16 02:49:02,-0.00,2.25,0.00,23.60,27.70,30.80,14.00,48.74,1021.02,2023.99,2521.98,2428.03,2821.59,599.69,596.99,8.26,0000 0000 0000 0000 000000
2018-06-16 02:54:03,-0.01,2.25,0.00,23.60,27.68,30.78,14.00,48.65,1021.03,2023.99,2521.96,2428.07,2821.88,600.24,597.57,8.31,0000 0000 0000 0000 000000
2018-06-16 02:59:04,-0.00,2.25,0.00,23.59,27.67,30.79,14.04,48.67,1021.04,2023.99,2521.98,2428.11,2821.94,600.08,597.58,8.36,0000 0000 0000 0000 000000
2018-06-16 03:04:06,-0.01,2.25,0.00,23.57,27.65,30.75,14.13,48.86,1021.02,2023.99,2521.99,2428.26,2821.97,600.26,597.82,8.41,0000 0000 0000 0000 000000
2018-06-16 03:09:07,-0.01,2.25,0.00,23.57,27.64,30.74,14.04,48.82,1021.03,2024.01,2521.99,2428.52,2821.98,600.33,597.71,8.46,0000 0000 0000 0000 000000
2018-06-16 03:14:08,-0.00,2.25,0.00,23.57,27.62,30.72,14.16,48.96,1021.03,2024.02,2521.99,2428.89,2821.99,600.47,597.93,8.51,0000 0000 0000 0000 000000
2018-06-16 03:19:10,0.00,2.25,0.00,23.55,27.61,30.71,14.08,48.79,1021.05,2024.05,2521.99,2428.96,2821.99,600.02,597.49,8.56,0000 0000 0000 0000 000000
2018-06-16 03:24:11,0.00,2.25,0.00,23.55,27.60,30.72,14.00,48.73,1021.10,2024.06,2522.01,2428.98,2822.00,599.99,597.58,8.61,0000 0000 0000 0000 000000
2018-06-16 03:29:12,0.03,2.25,0.00,23.53,27.57,30.68,13.99,48.82,1021.17,2024.25,2522.03,2428.99,2822.02,600.02,597.69,8.66,0000 0000 0000 0000 000000
2018-06-16 03:34:14,0.03,2.25,0.00,23.52,27.57,30.66,14.06,48.86,1021.29,2024.53,2522.06,2428.99,2822.05,600.04,597.80,8.71,0000 0000 0000 0000 000000
2018-06-16 03:39:15,0.01,2.25,0.00,23.50,27.55,30.67,14.04,48.83,1021.41,2024.80,2522.13,2428.99,2822.06,600.17,597.89,8.76,0000 0000 0000 0000 000000
2018-06-16 03:44:16,-0.01,2.25,0.00,23.50,27.54,30.65,14.09,48.85,1021.50,2024.95,2522.44,2428.99,2822.40,600.17,598.10,8.81,0000 0000 0000 0000 000000
2018-06-16 03:49:17,-0.00,2.25,0.00,23.47,27.52,30.64,14.03,48.80,1021.50,2024.95,2522.51,2429.00,2822.64,599.88,597.77,8.86,0000 0000 0000 0000 000000
2018-06-16 03:54:19,0.00,2.25,0.00,23.47,27.51,30.62,14.00,48.66,1021.50,2024.95,2522.22,2429.00,2822.58,599.84,597.82,8.91,0000 0000 0000 0000 000000
2018-06-16 03:59:20,-0.00,2.25,0.00,23.46,27.50,30.61,13.99,48.72,1021.50,2024.96,2522.33,2429.01,2822.74,600.11,598.06,8.96,0000 0000 0000 0000 000000
2018-06-16 04:04:21,0.00,2.25,0.00,23.44,27.49,30.61,14.08,48.84,1021.50,2024.98,2522.39,2429.01,2822.91,600.24,598.23,9.01,0000 0000 0000 0000 000000
2018-06-16 04:09:22,-0.00,2.25,0.00,23.42,27.47,30.60,14.08,48.77,1021.50,2024.99,2522.51,2429.03,2822.95,600.21,598.31,9.06,0000 0000 0000 0000 000000
2018-06-16 04:14:24,-0.00,2.25,0.00,23.42,27.47,30.57,14.02,48.76,1021.50,2024.99,2522.82,2429.03,2822.97,600.12,598.10,9.11,0000 0000 0000 0000 000000
2018-06-16 04:19:25,-0.00,2.25,0.00,23.42,27.45,30.56,14.10,48.92,1021.50,2024.99,2522.89,2429.14,2822.98,600.12,598.29,9.16,0000 0000 0000 0000 000000
2018-06-16 04:24:26,-0.00,2.25,0.00,23.42,27.45,30.53,14.04,48.88,1021.50,2025.00,2522.96,2429.21,2822.99,599.90,597.74,9.21,0000 0000 0000 0000 000000
2018-06-16 04:29:27,-0.00,2.25,0.00,23.40,27.43,30.51,14.03,48.90,1021.50,2025.00,2522.95,2429.25,2822.99,599.93,598.14,9.27,0000 0000 0000 0000 000000
2018-06-16 04:34:28,-0.00,2.25,0.00,23.40,27.42,30.52,14.08,48.80,1021.50,2025.00,2522.95,2429.37,2822.99,599.85,597.98,9.32,0000 0000 0000 0000 000000
2018-06-16 04:39:30,-0.01,2.25,0.00,23.40,27.41,30.51,14.02,48.85,1021.50,2025.01,2522.95,2429.45,2822.99,600.22,598.51,9.37,0000 0000 0000 0000 000000
2018-06-16 04:44:31,-0.01,2.25,0.00,23.39,27.40,30.51,14.01,48.83,1021.51,2025.01,2522.97,2429.69,2822.99,600.14,598.24,9.42,0000 0000 0000 0000 000000
2018-06-16 04:49:32,0.00,2.25,0.00,23.37,27.40,30.50,14.13,48.83,1021.52,2025.04,2522.96,2429.82,2822.99,600.41,598.62,9.47,0000 0000 0000 0000 000000
2018-06-16 04:54:33,0.00,2.25,0.00,23.37,27.38,30.49,14.01,48.92,1021.55,2025.06,2522.97,2429.91,2823.00,599.82,597.99,9.52,0000 0000 0000 0000 000000
2018-06-16 04:59:35,0.00,2.25,0.00,23.37,27.37,30.48,14.09,48.98,1021.79,2025.11,2522.99,2429.95,2823.02,600.14,598.33,9.57,0000 0000 0000 0000 000000
2018-06-16 05:04:36,-0.00,2.25,0.00,23.35,27.37,30.47,14.12,49.01,1021.92,2025.17,2522.99,2429.97,2823.03,600.28,598.74,9.62,0000 0000 0000 0000 000000
2018-06-16 05:09:37,0.01,2.25,0.00,23.35,27.35,30.48,14.01,48.89,1021.85,2025.18,2522.99,2429.97,2823.05,599.89,598.36,9.67,0000 0000 0000 0000 000000
2018-06-16 05:14:39,0.00,2.25,0.00,23.34,27.35,30.45,13.98,48.92,1021.59,2025.25,2522.99,2429.98,2823.08,599.73,598.03,9.72,0000 0000 0000 0000 000000
2018-06-16 05:19:40,0.01,2.25,0.00,23.32,27.34,30.40,13.96,48.98,1021.53,2025.30,2522.99,2429.98,2823.06,599.66,598.00,9.77,0000 0000 0000 0000 000000
2018-06-16 05:24:40,0.01,2.25,0.00,23.33,27.32,30.42,14.07,48.92,1021.51,2025.43,2522.99,2429.99,2823.07,599.93,598.24,9.82,0000 0000 0000 0000 000000
2018-06-16 05:29:42,0.02,2.25,0.00,23.33,27.32,30.40,14.02,48.97,1021.50,2025.68,2523.00,2429.99,2823.20,600.20,598.54,9.87,0000 0000 0000 0000 000000
2018-06-16 05:34:43,0.01,2.25,0.00,23.32,27.31,30.41,14.07,48.94,1021.50,2025.92,2523.00,2429.99,2823.63,599.98,598.09,9.92,0000 0000 0000 0000 000000
2018-06-16 05:39:44,0.00,2.25,0.00,23.32,27.30,30.41,14.06,48.90,1021.50,2025.96,2523.00,2429.99,2823.81,600.08,598.38,9.97,0000 0000 0000 0000 000000
2018-06-16 05:44:45,-0.00,2.25,0.00,23.31,27.30,30.39,14.00,48.88,1021.50,2025.94,2523.02,2429.99,2823.86,599.90,598.34,10.02,0000 0000 0000 0000 000000
2018-06-16 05:49:46,0.00,2.25,0.00,23.30,27.27,30.40,14.02,48.88,1021.50,2025.97,2523.03,2429.99,2823.94,599.72,598.05,10.07,0000 0000 0000 0000 000000
2018-06-16 05:54:47,-0.00,2.25,0.00,23.30,27.27,30.39,14.07,48.99,1021.51,2025.95,2523.04,2430.00,2823.95,599.97,598.17,10.12,0000 0000 0000 0000 000000
2018-06-16 05:59:48,-0.00,2.25,0.00,23.29,27.27,30.37,14.10,49.01,1021.50,2025.98,2523.14,2430.01,2823.98,599.84,598.08,10.17,0000 0000 0000 0000 000000
2018-06-16 06:04:50,0.00,2.25,0.00,23.30,27.26,30.34,14.00,48.96,1021.50,2025.98,2523.05,2430.00,2823.97,599.92,598.24,10.22,0000 0000 0000 0000 000000
2018-06-16 06:09:51,0.00,2.25,0.00,23.31,27.25,30.35,14.03,48.92,1021.50,2025.97,2523.00,2430.00,2823.96,600.09,598.27,10.27,0000 0000 0000 0000 000000
2018-06-16 06:14:53,-0.00,2.25,0.00,23.32,27.25,30.34,14.07,49.09,1021.50,2025.97,2523.02,2430.00,2823.92,600.00,598.21,10.32,0000 0000 0000 0000 000000
2018-06-16 06:19:54,0.00,2.25,0.00,23.34,27.25,30.33,14.04,49.06,1021.51,2025.98,2523.03,2430.00,2823.96,599.69,597.90,10.37,0000 0000 0000 0000 000000
2018-06-16 06:24:55,0.00,2.25,0.00,23.34,27.25,30.31,14.05,49.05,1021.51,2025.99,2523.09,2430.01,2823.97,600.24,598.46,10.42,0000 0000 0000 0000 000000
2018-06-16 06:29:56,-0.00,2.25,0.00,23.35,27.25,30.32,14.05,49.03,1021.50,2025.98,2523.19,2430.01,2823.98,600.15,598.34,10.47,0000 0000 0000 0000 000000
2018-06-16 06:34:58,-0.00,2.25,0.00,23.37,27.25,30.30,14.01,49.02,1021.51,2025.99,2523.33,2430.02,2823.98,600.13,598.29,10.52,0000 0000 0000 0000 000000
2018-06-16 06:39:59,-0.00,2.25,0.00,23.37,27.25,30.30,14.00,49.07,1021.50,2025.99,2523.60,2430.02,2823.98,599.72,597.99,10.57,0000 0000 0000 0000 000000
2018-06-16 06:45:00,-0.00,2.25,0.00,23.38,27.25,30.31,14.08,49.01,1021.50,2025.99,2523.74,2430.07,2823.99,600.08,598.24,10.62,0000 0000 0000 0000 000000
2018-06-16 06:50:01,0.01,2.25,0.00,23.40,27.25,30.30,14.02,49.02,1021.50,2025.99,2523.58,2430.06,2823.98,599.85,597.85,10.67,0000 0000 0000 0000 000000
2018-06-16 06:55:03,0.00,2.25,0.00,23.40,27.25,30.31,14.03,49.02,1021.50,2025.98,2523.36,2430.01,2823.98,599.78,597.88,10.72,0000 0000 0000 0000 000000
2018-06-16 07:00:04,0.00,2.25,0.00,23.40,27.25,30.31,13.99,48.99,1021.50,2025.98,2523.22,2430.01,2823.97,600.04,598.14,10.77,0000 0000 0000 0000 000000
2018-06-16 07:05:05,-0.00,2.25,0.00,23.40,27.25,30.31,14.05,48.99,1021.50,2025.97,2523.13,2430.01,2823.96,600.21,598.33,10.82,0000 0000 0000 0000 000000
2018-06-16 07:10:06,0.00,2.25,0.00,23.40,27.25,30.35,14.02,48.99,1021.46,2025.98,2523.21,2430.01,2823.96,600.08,598.24,10.87,0000 0000 0000 0000 000000
2018-06-16 07:15:08,-0.00,2.25,0.00,23.41,27.25,30.36,14.04,49.11,1021.47,2025.98,2523.15,2430.00,2823.97,599.51,597.79,10.92,0000 0000 0000 0000 000000
2018-06-16 07:20:08,0.00,2.25,0.00,23.42,27.25,30.34,13.99,48.88,1021.38,2025.99,2523.10,2430.01,2823.96,599.99,597.92,10.97,0000 0000 0000 0000 000000
2018-06-16 07:25:10,-0.00,2.25,0.00,23.42,27.25,30.33,14.03,49.02,1021.37,2025.99,2523.17,2430.01,2823.97,599.70,597.66,11.02,0000 0000 0000 0000 000000
2018-06-16 07:30:11,0.00,2.25,0.00,23.43,27.25,30.33,13.99,49.03,1021.50,2025.98,2523.10,2430.01,2823.97,600.20,598.18,11.07,0000 0000 0000 0000 000000
2018-06-16 07:35:12,0.00,2.25,0.00,23.45,27.26,30.32,14.05,48.92,1021.49,2025.97,2523.09,2430.01,2823.97,600.11,598.04,11.12,0000 0000 0000 0000 000000
2018-06-16 07:40:13,-0.00,2.25,0.00,23.47,27.27,30.35,14.03,48.89,1021.36,2025.96,2523.09,2430.00,2823.95,599.98,597.89,11.17,0000 0000 0000 0000 000000
2018-06-16 07:45:14,0.00,2.25,0.00,23.47,27.27,30.32,14.10,48.97,1021.34,2025.98,2523.04,2430.01,2823.94,600.05,597.95,11.22,0000 0000 0000 0000 000000
2018-06-16 07:50:15,0.00,2.25,0.00,23.49,27.27,30.31,14.05,49.02,1021.45,2025.98,2523.03,2430.00,2823.86,599.92,597.89,11.27,0000 0000 0000 0000 000000
2018-06-16 07:55:16,0.00,2.25,0.00,23.50,27.27,30.34,14.01,48.90,1021.41,2025.97,2523.00,2430.00,2823.69,599.97,597.74,11.32,0000 0000 0000 0000 000000
2018-06-16 08:00:18,0.00,2.25,0.00,23.51,27.27,30.33,14.05,49.02,1021.20,2025.98,2523.01,2430.00,2823.73,599.92,597.72,11.37,0000 0000 0000 0000 000000
2018-06-16 08:05:19,0.00,2.25,0.00,23.52,27.28,30.32,14.02,48.93,1021.44,2025.98,2523.01,2430.00,2823.62,600.00,597.76,11.42,0000 0000 0000 0000 000000
2018-06-16 08:10:20,0.00,2.25,0.00,23.53,27.29,30.32,14.01,48.98,1021.33,2025.95,2523.00,2430.00,2823.32,600.04,597.72,11.47,0000 0000 0000 0000 000000
2018-06-16 08:15:22,0.01,2.25,0.00,23.55,27.30,30.31,13.99,49.06,1021.38,2025.97,2523.00,2430.00,2823.06,599.92,597.64,11.52,0000 0000 0000 0000 000000
2018-06-16 08:20:23,0.00,2.25,0.00,23.55,27.30,30.30,13.95,49.06,1021.42,2025.97,2522.99,2429.99,2823.02,599.67,597.49,11.57,0000 0000 0000 0000 000000
2018-06-16 08:25:24,-0.00,2.25,0.00,23.55,27.30,30.33,14.01,48.92,1021.20,2025.90,2522.90,2429.85,2823.00,600.04,597.65,11.62,0000 0000 0000 0000 000000
2018-06-16 08:30:25,0.00,2.25,0.00,23.55,27.30,30.36,13.99,48.92,1021.14,2025.89,2522.87,2429.80,2823.00,599.98,597.43,11.67,0000 0000 0000 0000 000000
2018-06-16 08:35:26,0.00,2.25,0.00,23.55,27.31,30.37,14.06,48.94,1021.43,2025.92,2522.85,2429.86,2823.00,599.84,597.71,11.72,0000 0000 0000 0000 000000
2018-06-16 08:40:27,0.00,2.25,0.00,23.54,27.32,30.39,14.04,48.98,1021.49,2025.91,2522.74,2429.78,2823.00,600.07,597.80,11.78,0000 0000 0000 0000 000000
2018-06-16 08:45:28,-0.00,2.25,0.00,23.52,27.32,30.40,14.04,48.94,1021.50,2025.86,2522.59,2429.72,2823.00,599.68,597.51,11.83,0000 0000 0000 0000 000000
2018-06-16 08:50:30,0.02,2.25,0.00,23.52,27.32,30.42,14.04,48.98,1021.48,2025.82,2522.27,2429.48,2822.99,599.95,597.82,11.88,0000 0000 0000 0000 000000
2018-06-16 08:55:31,0.00,2.25,0.00,23.52,27.32,30.42,14.07,48.92,1021.49,2025.78,2522.19,2429.38,2822.98,600.07,597.93,11.93,0000 0000 0000 0000 000000
2018-06-16 09:00:33,-0.00,2.25,0.00,23.51,27.32,30.41,14.04,48.97,1021.49,2025.92,2522.36,2429.70,2822.99,599.78,597.67,11.98,0000 0000 0000 0000 000000
2018-06-16 09:05:34,0.00,2.25,0.00,23.50,27.32,30.42,13.96,48.96,1021.38,2025.94,2522.30,2429.73,2822.98,599.96,597.77,12.03,0000 0000 0000 0000 000000
2018-06-16 09:10:35,0.01,2.25,0.00,23.50,27.32,30.40,14.04,49.08,1021.34,2025.92,2522.11,2429.55,2822.99,599.99,597.85,12.08,0000 0000 0000 0000 000000
2018-06-16 09:15:36,0.00,2.25,0.00,23.50,27.32,30.39,14.09,49.04,1021.45,2025.94,2522.04,2429.37,2822.98,600.12,597.91,12.13,0000 0000 0000 0000 000000
2018-06-16 09:20:37,-0.00,2.25,0.00,23.50,27.31,30.38,13.98,48.93,1021.46,2025.92,2522.05,2429.40,2822.98,599.85,597.62,12.18,0000 0000 0000 0000 000000
2018-06-16 09:25:38,0.01,2.25,0.00,23.49,27.30,30.42,13.98,48.86,1021.50,2025.93,2522.02,2429.24,2822.97,599.85,597.74,12.23,0000 0000 0000 0000 000000
2018-06-16 09:30:40,-0.01,2.25,0.00,23.48,27.30,30.42,14.00,49.00,1021.46,2025.94,2522.04,2429.40,2822.98,600.18,598.04,12.28,0000 0000 0000 0000 000000
2018-06-16 09:35:41,-0.01,2.25,0.00,23.47,27.30,30.41,14.07,48.83,1021.46,2025.97,2522.04,2429.59,2822.99,600.03,598.01,12.33,0000 0000 0000 0000 000000
2018-06-16 09:40:43,0.00,2.25,0.00,23.47,27.30,30.42,14.04,48.95,1021.48,2025.98,2522.01,2429.56,2822.99,600.02,598.01,12.38,0000 0000 0000 0000 000000
2018-06-16 09:45:44,0.01,2.25,0.00,23.45,27.30,30.41,14.02,49.00,1021.41,2025.98,2522.01,2429.38,2822.99,600.18,598.13,12.43,0000 0000 0000 0000 000000
2018-06-16 09:50:45,-0.00,2.25,0.00,23.45,27.30,30.42,14.09,48.87,1021.47,2025.96,2522.01,2429.36,2822.99,600.40,598.18,12.48,0000 0000 0000 0000 000000
2018-06-16 09:55:46,-0.00,2.25,0.00,23.43,27.30,30.40,13.98,48.97,1021.50,2025.96,2522.02,2429.36,2822.98,600.03,598.05,12.53,0000 0000 0000 0000 000000
2018-06-16 10:00:48,0.00,2.25,0.00,23.42,27.30,30.40,14.05,49.11,1021.46,2025.97,2522.01,2429.38,2822.98,600.09,598.01,12.58,0000 0000 0000 0000 000000
2018-06-16 10:05:49,0.00,2.25,0.00,23.42,27.28,30.40,14.04,48.90,1021.42,2025.97,2522.01,2429.29,2822.98,599.89,597.90,12.63,0000 0000 0000 0000 000000
2018-06-16 10:10:51,0.00,2.25,0.00,23.40,27.27,30.41,13.97,48.90,1021.31,2025.98,2522.01,2429.40,2822.98,599.81,597.76,12.68,0000 0000 0000 0000 000000
2018-06-16 10:15:52,0.00,2.25,0.00,23.40,27.27,30.37,14.03,48.97,1021.30,2025.98,2522.00,2429.44,2822.98,599.97,597.85,12.73,0000 0000 0000 0000 000000
2018-06-16 10:20:53,0.01,2.25,0.00,23.38,27.27,30.38,14.08,48.94,1021.06,2025.99,2522.00,2429.35,2822.97,600.19,598.03,12.78,0000 0000 0000 0000 000000
2018-06-16 10:25:55,-0.01,2.25,0.00,23.37,27.26,30.39,14.02,48.89,1021.08,2025.99,2522.00,2429.59,2822.99,600.07,597.94,12.83,0000 0000 0000 0000 000000
2018-06-16 10:30:56,0.00,2.25,0.00,23.35,27.25,30.37,14.07,48.95,1021.26,2025.99,2522.00,2429.62,2822.99,600.35,598.43,12.88,0000 0000 0000 0000 000000
2018-06-16 10:35:57,0.30,2.26,0.00,23.33,27.25,30.38,14.01,48.99,1021.35,2025.99,2519.29,2427.66,2820.78,599.75,597.78,12.93,0000 0000 0000 0000 000000
2018-06-16 10:40:58,0.03,2.27,0.00,23.32,27.24,30.36,13.95,48.83,1021.32,2025.99,2517.01,2426.01,2818.99,599.86,598.01,12.98,0000 0000 0000 0000 000000
2018-06-16 10:45:59,0.00,2.27,0.00,23.31,27.22,30.35,14.02,48.98,1021.20,2025.99,2516.98,2425.99,2818.98,599.89,598.07,13.03,0000 0000 0000 0000 000000
2018-06-16 10:51:01,0.00,2.27,0.00,23.30,27.22,30.34,13.96,48.88,1021.12,2025.99,2516.98,2425.99,2818.99,599.90,597.96,13.08,0000 0000 0000 0000 000000
2018-06-16 10:56:02,0.00,2.27,0.00,23.27,27.21,30.35,14.00,48.92,1021.10,2025.99,2516.98,2425.99,2818.99,599.62,597.81,13.13,0000 0000 0000 0000 000000
2018-06-16 11:01:03,0.00,2.27,0.00,23.27,27.20,30.33,14.06,48.96,1021.30,2025.99,2516.98,2425.99,2818.99,600.23,598.49,13.18,0000 0000 0000 0000 000000
2018-06-16 11:06:05,0.00,2.27,0.00,23.25,27.19,30.33,14.04,48.92,1021.38,2025.99,2516.97,2425.99,2818.99,599.96,598.27,13.23,0000 0000 0000 0000 000000
2018-06-16 11:11:06,0.00,2.27,0.00,23.24,27.17,30.31,14.02,49.02,1021.20,2026.00,2516.97,2425.99,2818.99,600.00,598.07,13.28,0000 0000 0000 0000 000000
2018-06-16 11:16:07,-0.00,2.27,0.00,23.22,27.17,30.29,14.03,48.91,1021.11,2026.02,2516.98,2426.00,2818.99,599.95,598.13,13.33,0000 0000 0000 0000 000000
2018-06-16 11:21:08,0.00,2.27,0.00,23.22,27.15,30.29,13.97,48.88,1021.07,2026.03,2516.99,2426.01,2818.99,599.72,597.93,13.38,0000 0000 0000 0000 000000
2018-06-16 11:26:09,0.00,2.27,0.00,23.20,27.14,30.27,14.08,49.08,1021.06,2026.08,2516.99,2426.02,2819.02,600.01,598.39,13.43,0000 0000 0000 0000 000000
2018-06-16 11:31:10,-0.00,2.27,0.00,23.17,27.12,30.30,14.01,48.86,1021.03,2026.05,2516.99,2426.02,2819.01,599.93,598.21,13.48,0000 0000 0000 0000 000000
2018-06-16 11:36:11,0.00,2.27,0.00,23.15,27.12,30.27,14.06,48.80,1021.03,2026.11,2516.99,2426.02,2819.03,600.15,598.44,13.53,0000 0000 0000 0000 000000
2018-06-16 11:41:13,0.01,2.27,0.00,23.13,27.10,30.25,14.10,48.85,1021.02,2026.20,2516.99,2426.04,2819.03,599.80,598.15,13.58,0000 0000 0000 0000 000000
2018-06-16 11:46:14,0.01,2.27,0.00,23.10,27.08,30.22,14.04,48.80,1021.01,2026.41,2516.99,2426.08,2819.07,599.95,598.39,13.63,0000 0000 0000 0000 000000
2018-06-16 11:51:15,0.03,2.27,0.00,23.08,27.07,30.20,14.04,48.88,1021.01,2026.77,2516.99,2426.20,2819.23,599.70,598.13,13.68,0000 0000 0000 0000 000000
2018-06-16 11:56:16,-0.00,2.27,0.00,23.06,27.05,30.20,14.06,48.88,1021.01,2026.81,2516.99,2426.38,2819.42,600.14,598.69,13.73,0000 0000 0000 0000 000000
2018-06-16 12:01:17,-0.01,2.27,0.00,23.04,27.04,30.17,14.03,48.89,1020.95,2026.85,2516.99,2426.44,2819.55,599.83,598.30,13.78,0000 0000 0000 0000 000000
2018-06-16 12:06:18,0.00,2.27,0.00,23.02,27.02,30.15,14.07,48.81,1020.76,2026.94,2516.99,2426.67,2819.73,600.00,598.53,13.83,0000 0000 0000 0000 000000
2018-06-16 12:11:20,-0.01,2.27,0.00,23.00,27.00,30.16,14.05,48.88,1020.89,2026.99,2516.99,2426.88,2819.91,600.19,598.75,13.88,0000 0000 0000 0000 000000
2018-06-16 12:16:21,-0.00,2.27,0.00,22.97,26.99,30.12,14.11,48.98,1020.99,2026.97,2516.99,2426.95,2819.97,600.07,598.63,13.93,0000 0000 0000 0000 000000
2018-06-16 12:21:22,-0.00,2.27,0.00,22.94,26.97,30.11,14.10,48.91,1021.01,2026.99,2517.03,2426.98,2819.99,600.01,598.75,13.98,0000 0000 0000 0000 000000
2018-06-16 12:26:23,0.00,2.27,0.00,22.92,26.96,30.09,14.09,48.83,1021.01,2026.99,2517.05,2426.99,2819.99,600.61,599.35,14.03,0000 0000 0000 0000 000000
2018-06-16 12:31:25,0.00,2.27,0.00,22.89,26.94,30.06,14.07,48.88,1021.01,2026.99,2517.19,2426.99,2819.99,599.89,598.64,14.08,0000 0000 0000 0000 000000
2018-06-16 12:36:26,-0.00,2.27,0.00,22.87,26.92,30.05,14.08,48.77,1021.01,2027.00,2517.28,2426.99,2820.01,600.00,598.90,14.13,0000 0000 0000 0000 000000
2018-06-16 12:41:27,-0.00,2.27,0.00,22.85,26.91,30.04,14.07,48.86,1021.00,2027.01,2517.44,2427.00,2820.02,599.86,598.79,14.18,0000 0000 0000 0000 000000
2018-06-16 12:46:28,-0.00,2.27,0.00,22.82,26.89,30.01,14.05,48.77,1020.99,2027.03,2517.64,2427.01,2820.03,600.07,599.08,14.24,0000 0000 0000 0000 000000
2018-06-16 12:51:30,-0.00,2.27,0.00,22.79,26.87,30.00,14.05,48.88,1020.97,2027.04,2517.86,2427.03,2820.14,600.05,598.94,14.29,0000 0000 0000 0000 000000
2018-06-16 12:56:31,-0.00,2.27,0.00,22.77,26.86,29.99,14.02,48.90,1020.95,2027.07,2517.94,2427.06,2820.50,600.05,599.08,14.34,0000 0000 0000 0000 000000